ONEWEB-0310, 49096

Orbit data source: Space-Track

ONEWEB-0310, 49096 is a payload satellite owned by One Web (NAA) (UK) in LEO that was launched on Sat, 21 Aug 2021 UTC via a SOYUZ-2-1B launch vehicle from the Tyuratam Missile And Space Complex (TTMTR). Payload-class satellites include a variety of spacecraft equipped with specific instruments for various scientific and technological missions. These include communications satellites like Starlink; space stations such as the ISS; scientific satellites like the Hubble; Earth observation satellites from companies like Planet Labs, Umbra, and HawkEye 360; GPS; miniature CubeSats for education and research; and military/defense satellites.

Loading next visibility...
Identifier
49096, 2021-075X
Orbit
LEO
Country
Flag of UKUK
Related business
Manufacturer
One Web
Mission
Operational Commercial Communications
Bus & Motor
ARROW, Unknown motor
Mass
148 kg wet, ~140 kg dry
Launch date (UTC)
2021-08-21 (5 years ago)
Launch vehicle
SOYUZ-2-1B
Launch site
Tyuratam Missile And Space Complex (TTMTR)
Object type
Payload
Rocket body
Debris
Shape & HBR
Trap Box + 2 Pan, 6.7 m
Radar Cross Section
3.464 m², Large (>1 m²)

Expand to show TLE details & history
Last TLE update: 22 hours ago

TLE from 22 hours ago
0 ONEWEB-0310
1 49096U 21075X   26175.24943406  .00000389  00000-0  10461-2 0  9990
2 49096  87.8941 349.2751 0001827  93.1821 266.9517 13.12441337236118
Epoch: 2026-06-24T05:59Z
TLE epoch observation values (Epoch: 2026-06-24T05:59:11.102Z)
Latitude
Longitude
-12.93051°
Altitude
1,216.694 km
Speed
7.246 km/s
True Right ascension
23h 17m 06s
True Declination
0° 00' 00"
Sunlit
Object was in daylight at epoch
Visualization orbit readout
Latitude
Unknown
Longitude
Unknown
Altitude
Unknown
Speed
Unknown
Apparent Right ascension
Unknown
Apparent Declination
Unknown
Sunlit
N/A
Visualization observer readout
Local Sidereal Time
15:26:57
Azimuth
Unknown
Elevation
Unknown
Doppler factor
Unknown
Orbital elements
Apogee altitude
1,212.233 km
Perigee altitude
1,209.46 km
Semi-major axis
7,588.983 km
Eccentricity
0.00018
Inclination
87.8941°
RAAN
349.2751°
Arg. of periapsis
93.1821°
True anomaly
266.93079°
Mean anomaly
266.9517°
Eccentric anomaly
266.94125°
Mean motion
3.28298 °/min
Orbital period
109.66 mins
BSTAR
0.0010461
Loading maneuver chart data...
Computing Atmospheric mass density...
Loading historical data...
Loading historical data...
Loading historical data...
Loading historical data...
Loading historical data...
Loading historical data...
Loading historical data...

Documentation

Showing up to 5 results
|